Phoenix, AZ

3:05 PM MST on February 06, 2016 (GMT -0700)
Phoenix-Deer Valley Municipal

Weather History for KDVT - September, 2014

Change the Weather History Date:

Thursday, September 4, 2014

  Actual Average Record
Temperature  
Mean Temperature 92 °F -  
Max Temperature 102 °F 97 °F 107 °F (1997)
Min Temperature 81 °F 76 °F 69 °F (1999)
Cooling Degree Days 27    
Growing Degree Days 42 (Base 50)    
Moisture  
Dew Point 53 °F    
Average Humidity 28    
Maximum Humidity 54    
Minimum Humidity 17    
Precipitation  
Precipitation 0.00 in - - ()
Sea Level Pressure  
Sea Level Pressure 29.64 in    
Wind  
Wind Speed 7 mph (SE)    
Max Wind Speed 16 mph    
Max Gust Speed 24 mph    
Visibility 10 miles    
Events Thunderstorm    
Averages and records for this station are not official NWS values.
T = Trace of Precipitation, MM = Missing Value Source: NWS Daily Summary

Daily Weather History Graph

Daily Weather History Graph

Search for Another Location

Airport or City:

Trip Planner

Search our weather history database for the weather conditions in past years. The results will help you decide how hot, cold, wet, or windy it might be!

Date:

Astronomy

Sep. 04, 2014 Rise Set
Actual Time 6:04 AM MST 6:49 PM MST
Civil Twilight 5:38 AM MST 7:14 PM MST
Nautical Twilight 5:09 AM MST 7:44 PM MST
Astronomical Twilight 4:38 AM MST 8:15 PM MST
Moon 3:22 PM MST (9/4) 1:07 AM MST (9/4)
Length of Visible Light 13h 35m
Length of Day
12h 45m
Waxing Gibbous, 75% of the Moon is Illuminated
Sep 4
Waxing Gibbous
Sep 8
Full
Sep 15
Last Quarter
Sep 23
New
Oct 1
First Quarter

Hourly Weather History & Observations

Time (MST) Temp. Heat Index Dew Point Humidity Pressure Visibility Wind Dir Wind Speed Gust Speed Precip Events Conditions
12:53 AM 89.1 °F - 46.0 °F 22% 29.58 in 10.0 mi North 6.9 mph - N/A   Clear
1:53 AM 84.9 °F - 46.9 °F 27% 29.59 in 10.0 mi ESE 4.6 mph - N/A   Clear
2:53 AM 89.1 °F - 51.1 °F 27% 29.58 in 10.0 mi SE 8.1 mph - N/A   Clear
3:53 AM 87.1 °F - 52.0 °F 30% 29.59 in 10.0 mi East 6.9 mph - N/A   Clear
4:53 AM 86.0 °F 84.0 °F 53.1 °F 32% 29.59 in 10.0 mi East 8.1 mph - N/A   Clear
5:53 AM 84.9 °F 83.3 °F 54.0 °F 34% 29.61 in 10.0 mi NNW 3.5 mph - N/A   Clear
6:53 AM 86.0 °F 84.0 °F 53.1 °F 32% 29.63 in 10.0 mi NNE 5.8 mph - N/A   Clear
7:53 AM 86.0 °F - 50.0 °F 29% 29.65 in 10.0 mi NE 3.5 mph - N/A   Clear
8:53 AM 93.0 °F 90.6 °F 53.1 °F 26% 29.67 in 10.0 mi NE 4.6 mph - N/A   Clear
9:53 AM 93.0 °F 90.6 °F 53.1 °F 26% 29.68 in 10.0 mi East 5.8 mph - N/A   Clear
10:53 AM 96.1 °F 93.5 °F 53.1 °F 23% 29.69 in 10.0 mi SE 6.9 mph - N/A   Scattered Clouds
11:53 AM 97.0 °F 94.6 °F 54.0 °F 23% 29.67 in 10.0 mi Variable 5.8 mph - N/A   Clear
12:53 PM 100.0 °F 97.9 °F 54.0 °F 21% 29.65 in 10.0 mi SSW 9.2 mph - N/A   Partly Cloudy
1:53 PM 99.0 °F 96.9 °F 54.0 °F 22% 29.63 in 10.0 mi Calm Calm - N/A   Partly Cloudy
2:53 PM 100.0 °F - 51.1 °F 19% 29.60 in 10.0 mi SSW 6.9 mph - N/A   Clear
3:53 PM 102.0 °F - 50.0 °F 17% 29.57 in 10.0 mi WNW 4.6 mph - N/A   Clear
4:53 PM 102.0 °F - 51.1 °F 18% 29.57 in 10.0 mi West 11.5 mph - N/A   Clear
5:53 PM 100.0 °F - 50.0 °F 18% 29.57 in 10.0 mi Calm Calm - N/A   Clear
6:53 PM 99.0 °F - 50.0 °F 19% 29.59 in 10.0 mi SSW 6.9 mph - N/A   Clear
7:29 PM 91.4 °F 89.9 °F 57.2 °F 31% 29.71 in 10.0 mi SW 16.1 mph 24.2 mph 0.00 in Thunderstorm Thunderstorm
7:53 PM 91.0 °F 89.2 °F 55.9 °F 30% 29.64 in 10.0 mi SW 8.1 mph - 0.00 in Thunderstorm Thunderstorm
8:53 PM 91.0 °F 88.9 °F 55.0 °F 29% 29.70 in 10.0 mi Variable 4.6 mph - N/A Thunderstorm Thunderstorm
9:53 PM 87.1 °F 86.7 °F 60.1 °F 40% 29.76 in 10.0 mi SE 11.5 mph - N/A   Clear
10:53 PM 82.9 °F 83.3 °F 61.0 °F 47% 29.78 in 9.0 mi SE 10.4 mph - N/A   Scattered Clouds
11:53 PM 81.0 °F 82.2 °F 63.0 °F 54% 29.76 in 10.0 mi SE 15.0 mph 19.6 mph N/A   Clear